STARLINK-1020 (44725 NORAD) Tracking and Keplerian Element Data

This shows tracking and keplerian element data for the satellite.

Feedback or suggestion? Click here.




ElementValue
Catalog44725
NameSTARLINK-1020
Epoch Orbit2117
Epoch Day87.91667824
Epoch Year2020
RAAN240.5766
Inclination52.9997
Eccentricity0.0002022
Argument of Perigee97.7316
Mean Anonmoly91.9685
Mean Motion15.0555068
Decay Rate0.00050755
L11 44725U 19074N 20087.91667824 .00050755 00000-0 34803-2 0 9995
L22 44725 52.9997 240.5766 0002022 97.7316 91.9685 15.05550680 21178

Live tracking and technical data element details for STARLINK-1020 (NORAD 44725). STARLINK-1020 can be tracked NOW for your location showing map with azimuth and elevation plus other details from your city location.

Track the satellite on the map from your city or location and see movement details for azimuth, elevation, latitude, longitude, range, height, and movement on the map or in text.







IsCatalogInMostPopularTable: catalog: 44725, numindb: 29
Update: records affected: 1



GetName: 44725 STARLINK-1020

Hit Count: updated at: Sat, 28 Mar 2020 20:20:05 GMT